Location: Gwatt
(46.7204°N, 7.6223°E)
Time: 08:28:13
(UTC+00:00)

Vanguard 2 - Pass Details

Date: 25 January 2021
Orbit: 552 x 2938 km, 32.9° (Epoch: 24 February)

Event Time Altitude Azimuth Distance (km) Brightness Sun altitude
Rises 16:59:47 0° 233° (SW) 2,712 12.1 -6.6°
Reaches altitude 10° 17:02:46 10° 207° (SSW) 1,885 10.3 -7.1°
Maximum altitude 17:05:04 14° 173° (S) 1,721 9.5 -7.5°
Drops below altitude 10° 17:07:38 10° 140° (SE) 2,166 9.6 -7.9°
Sets 17:11:31 0° 117° (ESE) 3,436 10.4 -8.5°
